Regional Weather Roundup
Issued by NWS Dallas/Fort Worth, TX

Home | Current Version | Previous Version | Graphics & Text | Print | Product List | Glossary Off
Versions: 1 2 3 4 5 6 7 8 9 10 11 12 13 14 15 16 17 18 19 20 21 22 23 24 25 26 27 28 29 30 31 32 33 34 35 36 37 38 39 40 41 42 43 44 45 46 47 48 49 50

000
ASUS44 KFWD 211010
RWRFWD
NORTH TEXAS HOURLY WEATHER ROUNDUP
NATIONAL WEATHER SERVICE FORT WORTH TX
500 AM CDT WED OCT 21 2020

NOTE: "FAIR" INDICATES FEW OR NO CLOUDS BELOW 12,000 FEET WITH NO
SIGNIFICANT WEATHER AND/OR OBSTRUCTIONS TO VISIBILITY.

TXZ118-119-211100-
DALLAS/FORT WORTH METROPLEX

CITY           SKY/WX    TMP DP  RH WIND       PRES   REMARKS
DFW AIRPORT    MOCLDY    70  68  93 SE6       30.01S
DALLAS LOVE    PTCLDY    71  67  87 SE7       30.02S
FTW MEACHAM    CLEAR     69  67  93 SE6       30.01S
DAL-EXECUTIVE  MOCLDY    69  66  90 SE5       30.02R
FTW-ALLIANCE   PTCLDY    70  66  87 S7        30.02R
FTW-SPINKS       N/A     69  67  90 SE5       30.03S
ARLINGTON      PTCLDY    72  68  87 MISG      30.02R
GRAND PRAIRIE  CLEAR     70  70 100 SE5       30.03S
ADDISON        PTCLDY    69  67  93 SE6       30.05R
MESQUITE       CLOUDY    68  67  98 SE5       30.03S
LANCASTER      MOCLDY    66  65  94 SE3       30.03F
$$

TXZ091>094-102>105-117-120-121-131>134-211100-
NORTH CENTRAL TEXAS

CITY           SKY/WX    TMP DP  RH WIND       PRES   REMARKS
SHRMAN/DENISON CLEAR     70  66  88 S9        30.04R
GAINESVILLE    CLEAR     67  65  93 S9        30.04R
BOWIE          CLEAR     67  64  89 S8        30.01S
BRIDGEPORT     CLEAR     70  65  82 S6        30.02S
DECATUR        MOCLDY    70  65  85 S10       30.02S
DENTON         PTCLDY    69  66  90 S7        30.02S
MCKINNEY       CLOUDY    69  66  90 S8        30.03S
BONHAM         CLEAR     68  66  95 S5        30.04R
ROCKWALL       CLOUDY    69  69 100 S6        30.04S
TERRELL        CLOUDY    69  68  96 S6        30.04S
WAXAHACHIE     CLOUDY    68  68 100 CALM      30.04S
GRANBURY       CLEAR     70  65  86 E7        30.02S
$$

TXZ083>090-098>101-113>116-127>130-139>142-154-155-211100-
WESTERN NORTH TEXAS

CITY           SKY/WX    TMP DP  RH WIND       PRES   REMARKS
WICHITA FALLS  CLEAR     69  64  84 S13       29.97R
WF-KICKAPOO    CLEAR     70  63  80 S8        30.00R
VERNON         CLEAR     70  63  80 S8        29.97R
ABILENE        CLEAR     68  63  84 S12       29.99R
ABILENE-DYESS  CLEAR     68  59  72 SE8       29.97S
GRAHAM         CLEAR     69  64  86 SE3       29.98S
BRECKENRIDGE   CLEAR     71  64  78 SE9       29.98S
CISCO          CLEAR     66  63  88 S9        29.99S
EASTLAND       CLEAR     64  62  93 S5        30.01S
RANGER         CLEAR     67  64  88 S9        30.02S
MINERAL WELLS  CLEAR     64  63  96 SE7       30.00R
STEPHENVILLE   CLEAR     67  63  87 SE6       30.05R
COMANCHE       CLEAR     65  65 100 S7        30.02S
BROWNWOOD      CLOUDY    66  63  88 SE8       30.01S
COLEMAN        CLEAR     66  59  77 S6        30.01S
BRADY          PTCLDY    66  61  82 SE10      30.00S
$$

TXZ143>147-156>162-174-175-211100-
CENTRAL TEXAS

CITY           SKY/WX    TMP DP  RH WIND       PRES   REMARKS
WACO           CLOUDY    73  68  84 SE6       30.02R
WACO-MCGREGOR    N/A     70  68  93 SE6       30.02S
HILLSBORO      CLOUDY    72  72 100 SE10      30.02R
CORSICANA      CLOUDY    72  69  90 S9        30.04S
MEXIA          MOCLDY    71  70  98 S3        30.02F
HEARNE         PTCLDY    71  69  93 CALM      30.03S
CAMERON        CLOUDY    74  69  82 S3        30.02S
TEMPLE         CLOUDY    73  70  90 S10       30.02S
KILLEEN        PTCLDY    69  66  90 SE7       30.01R
KILLEEN-SKYLRK CLOUDY    71  68  90 S6        30.02S
FORT HOOD      CLOUDY    72  68  88 S5        30.02R
GATESVILLE     CLEAR     70  66  88 CALM      30.03S
HAMILTON       CLOUDY    69  69  98 S7        30.04R
LAMPASAS       PTCLDY    68  65  91 CALM      30.01S
$$

TXZ095>097-106>112-122>126-135>138-148>153-164>167-211100-
EAST TEXAS

CITY           SKY/WX    TMP DP  RH WIND       PRES   REMARKS
PARIS          PTCLDY    64  64 100 SE6       30.05S
SULPHUR SPRNGS CLEAR     67  67 100 SE6       30.06S
MOUNT PLEASANT   N/A     65  64  96 CALM      30.07S VSB 1/2
GILMER         FOG       64  63  97 CALM      30.06R VSB 1
MINEOLA        PTCLDY    63  63 100 CALM      30.05S
TYLER          CLEAR     67  65  93 CALM      30.04R FOG
LONGVIEW       CLOUDY    66  64  93 CALM      30.04S FOG
MARSHALL         N/A     63  61  94 CALM      30.08R
ATHENS         CLOUDY    66  64  94 CALM      30.03R
PALESTINE      CLOUDY    69  69 100 CALM      30.05R FOG
JACKSONVILLE   CLEAR     67  67 100 S3        30.06S FOG
HENDERSON      CLEAR     63  63  98 CALM      30.06S
NACOGDOCHES    CLOUDY    63  62  97 CALM      30.06R
LUFKIN         FOG       65  64  97 E5        30.04S VSB 1/2
$$

SUPPLEMENTAL OBSERVATIONS (NWS FORT WORTH AREA)

CITY           SKY/WX    TMP DP  RH WIND       PRES   REMARKS
CADDO GRASSLND   N/A     66  64  94 S3          N/A
LBJ GRASSLAND    N/A     70  66  88 SE8         N/A
MCGREGOR         N/A     72  68  88 S5          N/A
$$

SUPPLEMENTAL OBSERVATIONS (NWS NORMAN AREA)

CITY           SKY/WX    TMP DP  RH WIND       PRES   REMARKS
GOODLETT         N/A     58  55  92 NE5         N/A
ODELL            N/A     68  63  82 SE10        N/A
CROWELL          N/A     62  60  91 SE6         N/A
KNOX CITY        N/A     65  60  82 SE10        N/A
SEYMOUR          N/A     68  62  78 SE12        N/A
MILLERS CREEK    N/A     70  63  78 S12         N/A
$$

SUPPLEMENTAL OBSERVATIONS (NWS SAN ANGELO AREA)

CITY           SKY/WX    TMP DP  RH WIND       PRES   REMARKS
WEINERT          N/A     68  62  78 S8          N/A
HASKELL          N/A     69  61  76 S8          N/A
THROCKMORTON     N/A     68  64  86 SE6         N/A
STAMFORD         N/A     70  63  79 S13         N/A
CLYDE            N/A     66  62  87 S12         N/A
HAMBY            N/A     70  63  78 S10         N/A
$$

SUPPLEMENTAL OBSERVATIONS (NWS SHREVEPORT AREA)

CITY           SKY/WX    TMP DP  RH WIND       PRES   REMARKS
TEXARKANA        N/A     61  59  94 CALM        N/A
LUFKIN           N/A     64  63  94 MISG        N/A
N SABINE NF      N/A     63  57  82 MISG        N/A
$$

SUPPLEMENTAL OBSERVATIONS ARE A COLLECTION OF AUTOMATED INSTRUMENTS
THAT ARE MAINTAINED BY A VARIETY OF FEDERAL AND STATE AGENCIES.
CERTAIN ELEMENTS...SUCH AS HUMIDITY VALUES AND SUSTAINED WIND
SPEEDS...MAY BE APPROXIMATED.




USA.gov is the U.S. government's official web portal to all federal, state and local government web resources and services.